EHI
0 0 0 0 0 0 0 0 0 0 0 0 0 0 0 0 0 0 0 0 0 0 0 0 0 0 0 0 0 0 0 0 0 0 0 0 0 0 0 0 0 0 0
0 0 0 0 0 0 0 0 0 0 0 0 0 0 0 0 0 0 0 0 0 0 0 0 0 0 0 0 0 0 0 0 0 0 0 0 0 0 0 0 0 0 0
0 0 0 0 0 0 0 0 0 0 0 0 0 0 0 0 0 0 0 0 0 0 0 0 0 0 0 0 0 0 0 0 0 0 0 0 0 0 0 0 0 0 0
0 0 0 0 0 0 0 0 0 0 0 0 0 0 0 0 0 0 0 0 0 0 0 0 0 0 0 0 0 0 0 0 0 0 0 0 0 0 0 0 0 0 0
0 0 0 0 0 0 0 0 0 0 0 0 0 0 0 0 0 0 0 0 0 0 0 0 0 0 0 0 0 0 0 0 0 0 0 0 0 0 0 0 0 0 0
0 0 0 0 0 0 0 0 0 0 0 0 0 0 0 0 0 0 0 0 0 0 0 0 0 0 0 0 0 0 0 0 0 0 0 0 0 0 0 0 0 0 0
0 0 0 0 0 0 0 0 0 0 0 0 0 0 0 0 0 0 0 0 0 0 0 0 0 0 0 0 0 0 0 0 0 0 0 0 0 0 0 0 0 0 0
0 0 0 0 0 0 0 0 0 0 0 0 0 0 0 0 0 0 0 0 0 0 0 0 0 0 0 0 0 0 0 0 0 0 0 0 0 0 0 0 0 0 0
0 0 0 0 0 0 0 0 0 0 0 0 0 0 0 0 0 0 0 0 0 0 0 0 0 0 0 0 0 0 0 0 0 0 0 0 0 0 0 0 0 0 0
0 0 0 0 0 0 0 0 0 0 0 0 0 0 0 0 0 0 0 0 0 0 0 0 0 0 0 0 0 0 0 0 0 0 0 0 0 0 0 0 0 0 0
0 0 0 0 0 0 0 0 0 0 0 0 0 0 0 0 0 0 0 0 0 0 0 0 0 0 0 0 0 0 0 0 0 0 0 0 0 0 0 0 0 0 0
0 0 0 0 0 0 0 0 0 0 0 0 0 0 0 0 0 0 0 0 0 0 0 0 0 0 0 0 0 0 0 0 0 0 0 0 0 0 0 0 0 0 0
0 0 0 0 0 0 0 0 0 0 0 0 0 0 0 0 0 0 0 0 0 0 0 0 0 0 0 0 0 0 0 0 0 0 0 0 0 0 0 0 0 0 0
0 0 0 0 0 0 0 0 0 0 0 0 0 0 0 0 0 0 0 0 0 0 0 0 0 0 0 0 0 0 0 0 0 0 0 0 0 0 0 0 0 0 0
0 0 0 0 0 0 0 0 0 0 0 0 0 0 0 0 0 0 0 0 0 0 0 0 0 0 0 0 0 0 0 0 0 0 0 0 0 0 0 0 0 0 0
0 0 0 0 0 0 0 0 0 0 0 0 0 0 0 0 0 0 0 0 0 0 0 0 0 0 0 0 0 0 0 0 0 0 0 0 0 0 0 0 0 0 0
0 0 0 0 0 0 0 0 0 0 0 0 0 0 0 0 0 0 0 0 0 0 0 0 0 0 0 0 0 0 0 0 0 0 0 0 0 0 0 0 0 0 0
0 0 0 0 0 0 0 0 0 0 0 0 0 0 0 0 0 0 0 0 0 0 0 0 0 0 0 0 0 0 0 0 0 0 0 0 0 0 0 0 0 0 0
0 0 0 0 0 0 0 0 0 0 0 0 0 0 0 0 0 0 0 0 0 0 0 0 0 0 0 0 0 0 0 0 0 0 0 0 0 0 0 0 0 0 0
0 0 0 0 0 0 0 0 0 0 0 0 0 0 0 0 0 0 0 0 0 0 0 0 0 0 0 0 0 0 0 0 0 0 0 0 0 0 0 0 0 0 0
0 0 0 0 0 0 0 0 0 0 0 0 0 0 0 0 0 0 0 0 0 0 0 0 0 0 0 0 0 0 0 0 0 0 0 0 0 0 0 0 0 0 0
0 0 0 0 0 0 0 0 0 0 0 0 0 0 0 0 0 0 0 0 0 0 0 0 0 0 0 0 0 0 0 0 0 0 0 0 0 0 0 0 0 0 0
0 0 0 0 0 0 0 0 0 0 0 0 0 0 0 0 0 0 0 0 0 0 0 0 0 0 0 0 0 0 0 0 0 0 0 0 0 0 0 0 0 0 0
0 0 0 0 0 0 0 0 0 0 0 0 0 0 0 0 0 0 0 0 0 0 0 0 0 0 0 0 0 0 0 0 0 0 0 0 0 0 0 0 0 0 0
0 0 0 0 0 0 0 0 0 0 0 0 0 0 0 0 0 0 0 0 0 0 0 0 0 0 0 0 0 0 0 0 0 0 0 0 0 0 0 0 0 0 0
0 0 0 0 0 0 0 0 0 0 0 0 0 0 0 0 0 0 0 0 0 0 0 0 0 0 0 0 0 0 0 0 0 0 0 0 0 0 0 0 0 0 0
Wind_Speed
14 14 14 13 13 13 11 12 11 11 11 11 11 11 10 10 9 9 8 8 8 7 6 7 7 6 4 4 4 5 5 6 8 8 6 6 8 9 8 9 9 10 9
13 13 13 12 12 12 12 11 11 10 10 10 10 10 9 9 9 9 9 8 8 8 7 7 6 4 5 4 4 6 6 6 7 10 8 7 9 9 9 10 9 8 9
12 12 12 12 12 12 11 10 10 10 9 9 9 9 9 9 8 8 8 8 7 7 6 6 6 5 6 5 5 5 5 5 6 7 8 7 7 7 9 9 10 9 9
12 12 12 12 12 11 10 10 9 9 9 9 8 8 8 7 7 7 7 6 6 5 5 5 5 6 6 5 5 6 5 5 6 6 7 7 7 8 7 8 8 8 8
12 12 11 11 10 10 10 9 9 8 8 8 8 7 7 6 6 7 6 6 5 5 4 4 4 4 4 4 4 4 4 4 5 6 7 7 7 7 7 7 8 8 9
12 11 11 11 10 10 10 9 9 9 8 8 8 8 7 5 7 9 7 6 5 5 4 3 3 3 4 6 7 6 6 5 6 6 7 7 9 9 7 7 8 9 9
12 11 11 11 11 10 10 10 10 9 9 8 8 8 7 6 9 9 8 5 5 4 3 3 2 2 3 3 5 6 7 8 8 7 8 9 9 8 8 9 8 9 10
12 12 12 12 11 11 10 10 10 9 8 8 8 7 6 6 8 9 8 5 4 3 2 2 2 1 1 2 3 4 5 5 5 6 7 8 8 8 8 8 8 9 10
13 13 12 12 12 12 11 11 9 9 8 7 7 7 7 7 8 8 7 4 3 3 2 1 0 1 1 3 3 4 5 5 5 7 9 9 10 10 9 7 7 7 8
14 13 12 12 13 12 12 11 9 9 8 8 7 6 6 6 8 8 7 3 3 3 2 1 0 1 2 2 3 4 5 5 5 6 6 7 7 7 8 6 5 6 7
13 13 12 12 12 12 11 10 10 9 9 8 8 6 6 6 8 8 6 3 3 2 1 1 0 1 2 3 4 4 5 6 5 5 5 5 5 5 4 4 4 5 7
14 13 13 12 11 10 12 11 10 10 10 9 8 7 5 5 6 7 7 4 3 2 1 0 1 1 2 3 3 5 7 6 4 4 5 5 5 5 5 5 5 5 6
15 14 13 13 11 11 11 11 10 9 7 7 6 6 5 4 5 7 6 5 4 2 2 2 2 1 2 2 3 5 5 3 3 4 5 5 5 5 5 5 5 4 6
16 15 13 13 11 10 8 8 8 7 7 7 6 6 5 4 4 4 4 4 4 3 2 3 2 1 1 2 3 3 3 3 4 4 5 5 5 5 4 4 5 5 5
16 14 13 11 11 10 8 6 6 6 6 7 6 6 6 5 5 5 4 3 2 2 2 1 0 0 1 2 2 3 3 3 4 4 4 5 5 5 5 5 4 5 5
15 14 11 10 10 9 10 9 10 9 11 9 8 7 5 7 9 8 6 6 5 5 2 1 0 1 2 2 3 3 3 3 4 4 4 4 5 5 5 5 5 5 6
16 14 11 11 10 10 10 10 10 10 11 11 11 10 9 10 9 8 7 6 5 4 1 0 1 1 2 2 3 3 4 4 4 4 4 4 4 5 5 5 5 5 6
15 13 12 11 10 10 9 9 9 9 9 7 8 9 10 9 8 8 7 5 3 2 1 0 1 1 2 2 3 3 4 4 3 4 4 4 4 5 5 5 5 6 6
14 11 10 10 9 9 9 8 8 9 8 7 7 7 8 8 8 7 5 2 2 1 1 1 1 1 2 2 3 3 4 4 4 4 4 4 4 4 5 5 5 7 7
11 14 13 11 10 9 9 8 8 8 7 7 6 6 6 5 4 3 2 2 1 1 1 1 1 2 2 3 3 3 4 4 4 4 4 4 4 4 5 6 5 6 5
12 13 15 11 9 9 8 8 8 7 7 6 5 6 7 4 3 3 2 2 1 1 1 2 2 2 2 3 3 4 4 4 4 4 4 4 4 4 5 5 5 5 5
11 11 10 10 9 9 8 8 7 7 7 7 6 6 7 4 3 3 2 1 1 1 1 2 2 2 3 3 3 4 4 4 4 4 4 4 4 5 5 5 5 5 5
12 12 11 10 9 12 10 8 7 7 7 6 6 5 4 3 3 2 2 1 1 1 2 2 3 3 3 3 4 4 5 5 4 5 5 5 5 5 5 5 6 6 5
12 12 12 10 10 9 8 8 7 7 7 6 5 5 4 3 3 2 2 1 1 2 2 2 3 4 5 5 4 4 4 5 5 5 6 6 6 5 5 5 6 6 6
11 11 11 10 10 9 9 8 8 7 7 6 5 4 4 3 3 2 2 1 2 2 3 3 3 4 5 6 6 5 7 9 9 7 6 6 6 6 6 6 5 6 5
11 11 10 9 9 9 8 8 8 7 6 6 5 4 4 3 3 2 2 2 2 2 3 3 4 5 6 6 7 8 10 10 11 11 7 5 6 5 5 5 6 6 6
Wind_Direction
183 185 187 189 190 190 191 193 193 191 187 187 187 186 186 187 187 189 195 193 201 203 201 210 214 211 213 215 219 227 235 242 263 277 277 281 279 279 281 281 283 284 283
177 179 181 181 183 186 188 189 188 186 182 182 181 181 182 184 187 192 195 194 200 204 204 208 211 204 219 222 223 232 239 242 259 277 282 283 281 285 286 287 286 285 285
171 173 173 176 178 181 182 181 180 179 175 176 177 179 180 182 186 194 195 194 198 201 203 205 206 207 221 225 231 240 247 252 258 272 284 289 288 287 289 287 288 288 289
166 169 172 174 175 175 174 173 173 173 172 172 173 175 174 175 180 184 185 185 191 194 198 206 208 213 227 234 237 246 253 258 264 271 280 287 289 292 291 292 294 296 296
164 166 168 166 165 163 163 163 163 164 165 164 163 164 162 163 172 172 173 175 180 183 191 206 212 222 238 242 247 253 256 262 269 274 280 288 291 296 294 297 296 300 299
164 163 159 157 157 157 157 155 155 155 155 154 158 159 159 161 168 172 172 175 179 185 191 203 206 216 233 242 251 259 268 271 275 278 282 287 293 297 299 298 300 302 302
162 159 159 156 155 155 152 152 154 154 152 152 154 156 157 151 159 167 171 170 174 179 182 186 192 219 235 254 252 257 261 266 274 283 286 290 298 305 306 301 298 297 298
161 161 160 158 155 153 154 154 153 152 151 149 150 151 144 141 156 161 162 165 158 157 163 178 199 217 242 269 266 272 277 277 282 284 292 297 304 310 304 298 298 297 295
165 164 163 160 156 155 156 154 150 147 143 140 142 144 142 137 147 151 155 151 147 143 133 138 205 244 291 294 286 286 290 293 292 295 300 303 306 307 311 309 308 303 303
168 163 160 159 157 156 153 147 143 140 135 131 128 133 134 132 138 145 151 146 148 141 136 136 119 318 316 302 294 294 296 302 305 302 297 297 300 303 307 306 304 301 305
156 153 153 155 154 150 144 142 140 134 131 128 125 123 123 123 134 139 141 143 147 148 147 153 91 336 315 306 303 304 311 310 304 302 301 303 306 307 309 309 304 294 297
148 148 148 148 143 143 140 138 139 137 134 132 129 123 117 120 125 136 136 121 127 141 143 135 61 12 323 308 307 324 321 313 309 306 304 306 311 315 314 309 302 288 283
146 145 142 140 140 143 143 141 140 141 139 140 138 136 130 128 127 132 136 128 129 120 104 82 63 26 311 300 324 331 325 320 316 310 310 312 314 313 310 308 305 295 286
145 142 141 139 137 136 134 139 142 146 145 144 145 143 139 140 139 144 146 137 131 116 108 102 91 64 354 338 329 327 328 326 320 311 309 311 314 314 312 316 315 316 309
142 140 140 137 136 132 125 123 134 132 144 147 147 147 149 150 147 144 142 141 141 124 114 99 35 329 323 329 325 325 322 320 316 314 311 312 314 315 316 318 313 310 308
143 143 141 139 136 133 126 107 82 101 106 106 115 125 122 127 137 134 125 120 119 130 133 167 249 301 315 319 318 318 317 318 317 315 313 314 315 315 316 316 314 311 311
146 144 141 141 140 139 136 133 124 105 101 106 114 118 122 129 132 132 128 121 121 131 145 185 272 299 307 308 308 308 308 313 313 308 307 310 311 312 312 314 316 316 314
140 138 140 141 141 140 140 139 137 137 133 120 116 120 124 128 130 132 133 131 134 142 167 234 278 293 297 299 302 302 304 306 304 303 305 307 308 309 311 314 315 317 314
139 140 138 135 134 135 135 135 134 134 133 133 131 127 127 125 123 126 135 145 158 175 204 248 275 287 290 293 295 296 298 299 304 303 301 303 303 304 307 309 309 312 310
134 135 134 134 134 135 137 137 137 138 138 141 144 142 142 143 144 143 147 151 169 196 225 252 267 279 284 286 288 291 292 293 296 294 298 299 298 298 300 302 305 309 309
133 135 132 131 135 137 138 138 138 139 140 139 137 144 154 152 152 155 163 172 192 217 243 261 268 272 275 280 283 284 286 289 292 294 295 297 298 296 298 300 303 303 305
135 138 138 135 134 135 134 134 135 136 138 138 136 141 150 148 152 161 172 186 208 236 253 262 266 270 274 277 279 280 281 284 288 289 291 293 293 293 295 297 301 305 305
134 133 131 130 130 133 131 131 135 137 139 140 141 145 152 155 158 167 179 197 216 238 246 252 262 268 271 269 268 270 273 278 284 287 287 288 288 289 291 293 295 298 303
135 135 133 133 133 135 135 136 136 137 139 141 145 149 152 155 161 171 193 213 236 247 251 254 262 270 274 276 272 268 267 274 278 271 269 273 279 282 285 287 289 295 295
134 134 135 136 137 137 137 137 139 140 142 145 148 150 153 158 166 179 197 217 242 253 262 266 265 268 272 275 276 276 276 277 276 275 266 263 267 270 275 281 284 291 292
133 133 133 134 136 137 140 141 143 144 145 147 150 154 158 165 175 189 203 220 241 255 264 265 268 275 279 277 274 274 278 280 280 279 275 268 268 270 274 275 280 282 287